Location: Altenst�hlen
(53.5567°N, 8.9425°E)
Time: 12:50:21
(UTC+00:00)

STARLINK-70 - Pass Details

Date: 23 October 2019
Orbit: 548 x 551 km, 53.0° (Epoch: 13 November)

Event Time Altitude Azimuth Distance (km) Brightness Sun altitude
Rises 18:40:19 0° 283° (WNW) 2,721 8.7 -22.8°
Reaches altitude 10° 18:42:35 10° 279° (W) 1,826 7.4 -23.1°
Enters shadow 18:46:32 55° 208° (SSW) 668 4.0 -23.7°
